Location: Marion Hill
(40.7303°N, 80.2959°W)
Time: 08:57:44
(UTC+00:00)

Radarsat Rocket - Pass Details

Date: 29 October 2020
Orbit: 933 x 1492 km, 100.6° (Epoch: 26 November)

Event Time Altitude Azimuth Distance (km) Brightness Sun altitude
Rises 22:47:03 0° 170° (S) 3,762 7.1 -5.7°
Reaches altitude 10° 22:49:37 10° 173° (S) 2,758 6.5 -6.2°
Maximum altitude 22:55:39 67° 256° (WSW) 1,027 4.5 -7.3°
Drops below altitude 10° 23:01:27 10° 338° (NNW) 2,650 6.4 -8.3°
Sets 23:03:53 0° 342° (NNW) 3,603 7.1 -8.8°
